Location: New York
(40.7140°N, 74.0060°W)
Time: 01:11:34
(UTC-04:00)

ISS - Visible Passes

Search period start: 30 April 2017 00:00
Search period end: 10 May 2017 00:00
Orbit: 401 x 409 km, 51.6° (Epoch: 30 April)

Date Brightness Start Highest point End Pass type
(mag) Time Alt. Az. Time Alt. Az. Time Alt. Az.
04 May -1.9 05:02:49 10° S 05:05:29 23° SE 05:08:09 10° E visible
05 May -1.2 04:12:07 10° SSE 04:13:34 12° SE 04:14:59 10° ESE visible
06 May -3.5 04:54:45 13° SW 04:57:30 59° SE 05:00:44 10° ENE visible
07 May -2.5 04:04:41 26° SSE 04:05:27 29° SE 04:08:21 10° ENE visible
08 May -1.2 03:14:32 14° ESE 03:14:32 14° ESE 03:15:31 10° E visible
08 May -3.5 04:47:12 16° WSW 04:49:38 56° NNW 04:52:52 10° NE visible
09 May -3.9 03:56:58 60° SSW 03:57:27 76° SE 04:00:43 10° NE visible
